SM6VFJ-1 Weather Reports


time (UTC)temp
C
wind
direction
speed
KPH
gust
KPH
rain 1hr
cm
rain 24hr
cm
rain mn
cm
humidity
%
barometer
mb
20260506061528 5 180 0.0 0.0 0.00 0.00 0.00 69 1013.6
20260506044502 1 180 0.0 0.0 0.00 0.00 0.00 84 1013.6
20260506043103 0 180 0.0 0.0 0.00 0.00 0.00 85 1013.6
20260506041558 0 179 0.0 0.0 0.00 0.00 0.00 85 1013.4
20260506040053 -1 178 0.0 0.0 0.00 0.00 0.00 85 1013.4
20260506034553 -1 178 0.0 0.0 0.00 0.00 0.00 86 1013.3
20260506033056 -1 178 0.0 0.0 0.00 0.00 0.00 85 1013.3
20260506031546 -1 178 0.0 0.0 0.00 0.00 0.00 85 1013.1
20260506030042 -1 177 0.0 0.0 0.00 0.00 0.00 84 1013.1
20260506024544 -1 178 0.0 0.0 0.00 0.00 0.00 83 1013.1
20260506023040 -1 177 0.0 0.0 0.00 0.00 0.00 82 1013.0
20260506021547 -1 177 0.0 0.0 0.00 0.00 0.00 82 1012.9
20260506020036 -1 178 0.0 1.6 0.00 0.00 0.00 81 1012.8
20260506014534 -1 178 0.0 0.0 0.00 0.00 0.00 80 1012.8
20260506013034 0 178 0.0 1.6 0.00 0.00 0.00 78 1012.8
20260506011558 0 178 0.0 1.6 0.00 0.00 0.00 77 1012.7
20260506010030 0 181 0.0 1.6 0.00 0.00 0.00 76 1012.6
20260506004539 0 220 0.0 0.0 0.00 0.00 0.00 75 1012.5
20260506003030 0 220 0.0 0.0 0.00 0.00 0.00 73 1012.5
20260506001530 0 220 0.0 0.0 0.00 0.00 0.00 73 1012.5
20260506000025 0 220 0.0 0.0 0.00 0.00 0.00 74 1012.4
20260505234522 0 220 0.0 0.0 0.00 0.00 0.00 72 1012.5
20260505233030 0 220 0.0 0.0 0.00 0.00 0.00 71 1012.5
20260505231522 0 220 0.0 0.0 0.00 0.00 0.00 72 1012.4
20260505230018 0 220 0.0 0.0 0.00 0.00 0.00 71 1012.4
20260505224517 0 220 0.0 0.0 0.00 0.00 0.00 70 1012.4
20260505223018 0 220 0.0 0.0 0.00 0.00 0.00 69 1012.4
20260505221513 0 220 0.0 0.0 0.00 0.00 0.00 68 1012.4
20260505220022 1 220 0.0 0.0 0.00 0.00 0.00 66 1012.4
20260505214514 1 220 0.0 0.0 0.00 0.00 0.00 65 1012.3
20260505213009 1 220 0.0 0.0 0.00 0.00 0.00 65 1012.3
20260505211505 1 220 0.0 0.0 0.00 0.00 0.00 64 1012.1
20260505210004 1 220 0.0 0.0 0.00 0.00 0.00 63 1012.0
20260505204612 2 220 0.0 0.0 0.00 0.00 0.00 61 1012.0
20260505203107 2 220 0.0 0.0 0.00 0.00 0.00 58 1011.8
20260505201556 2 220 0.0 0.0 0.00 0.00 0.00 57 1011.7
20260505200054 3 220 0.0 0.0 0.00 0.00 0.00 55 1011.6
20260505194558 4 220 0.0 3.2 0.00 0.00 0.00 53 1011.5
20260505193047 5 220 0.0 4.8 0.00 0.00 0.00 51 1011.3
20260505191548 6 224 0.0 1.6 0.00 0.00 0.00 46 1011.3
20260505190046 7 224 0.0 3.2 0.00 0.00 0.00 40 1011.3
20260505184551 8 272 0.0 0.0 0.00 0.00 0.00 39 1011.2
20260505183050 8 277 0.0 0.0 0.00 0.00 0.00 37 1011.1
20260505181542 9 303 1.6 9.7 0.00 0.00 0.00 35 1010.9
20260505180040 9 297 0.0 9.7 0.00 0.00 0.00 35 1010.9
20260505174541 10 10 3.2 17.7 0.00 0.00 0.00 35 1010.7
20260505173038 10 330 9.7 17.7 0.00 0.00 0.00 32 1010.6
20260505171536 10 293 4.8 17.7 0.00 0.00 0.00 33 1010.4
20260505170035 10 336 3.2 19.3 0.00 0.00 0.00 36 1010.3
20260505164552 10 303 8.0 17.7 0.00 0.00 0.00 35 1010.3
20260505163036 10 279 8.0 17.7 0.00 0.00 0.00 31 1010.2
20260505161544 10 310 4.8 16.1 0.00 0.00 0.00 33 1010.0
20260505153031 11 270 1.6 17.7 0.00 0.00 0.00 33 1010.0
20260505151531 10 296 4.8 24.1 0.00 0.00 0.00 33 1009.9
20260505124526 9 287 9.7 20.9 0.00 0.00 0.00 38 1010.2
20260505123016 10 313 3.2 19.3 0.00 0.00 0.00 39 1010.2
20260505121516 9 284 1.6 22.5 0.00 0.00 0.00 40 1010.3
20260505120115 9 309 4.8 20.9 0.00 0.00 0.00 37 1010.3
20260505114512 8 320 1.6 25.7 0.00 0.00 0.00 39 1010.2
20260505113012 8 269 6.4 20.9 0.00 0.00 0.00 38 1010.2
20260505111511 8 298 4.8 19.3 0.00 0.00 0.00 39 1010.1
20260505101503 8 324 3.2 14.5 0.00 0.00 0.00 48 1009.8
20260505100104 7 319 3.2 20.9 0.00 0.00 0.00 44 1009.7
20260505094558 8 297 1.6 16.1 0.00 0.00 0.00 45 1009.8
20260505093104 7 301 3.2 17.7 0.00 0.00 0.00 43 1009.7
20260505091552 7 343 3.2 19.3 0.00 0.00 0.00 46 1009.7
20260505090049 7 319 3.2 16.1 0.00 0.00 0.00 48 1009.7
20260505084552 7 315 3.2 19.3 0.00 0.00 0.00 50 1009.7
20260505083049 7 245 3.2 17.7 0.00 0.00 0.00 50 1009.6
20260505081546 7 280 3.2 19.3 0.00 0.00 0.00 48 1009.4
20260505080039 6 311 3.2 16.1 0.00 0.00 0.00 54 1009.3
20260505074532 6 265 4.8 19.3 0.00 0.00 0.00 56 1009.3
20260505073032 6 321 4.8 14.5 0.00 0.00 0.00 62 1009.2